WetterOnline ( http://www.wetteronline.de )

Wetter aktuell Oschatz

Aktuelles Wetter: Oschatz (152m)

6-stündlich | Neueste Meldungen
Ortszeit Temperatur Wetter
Do, 24.01. 1:00 -6.9° C wolkenlos
Mi, 23.01. 19:00 -6.5° C bedeckt
Mi, 23.01. 13:00 -3.7° C leicht bewölkt
Mi, 23.01. 7:00 -8.7° C wolkig
Mi, 23.01. 1:00 -7.2° C leicht bewölkt
Di, 22.01. 19:00 -3.5° C wolkenlos
Di, 22.01. 13:00 -0.4° C wolkenlos
Di, 22.01. 7:00 -7.7° C wolkenlos
Ortszeit Temperatur Wetter
Do, 24.01. 5:00 -6.1° C bedeckt
Do, 24.01. 4:50 -6.1° C bedeckt
Do, 24.01. 4:40 -6.2° C bedeckt
Do, 24.01. 4:30 -6.5° C bedeckt
Do, 24.01. 4:20 -6.5° C bedeckt
Do, 24.01. 4:10 -7.1° C bedeckt
Do, 24.01. 4:00 -7.4° C bedeckt
Do, 24.01. 3:30 -6.8° C wolkig
Do, 24.01. 3:00 -6.6° C leicht bewölkt
Do, 24.01. 2:30 -6.3° C bedeckt
Do, 24.01. 2:00 -6.4° C bewölkt
Ortszeit Relative Feuchte Sichtweite
Do, 24.01. 1:00 87% 5.0 km
Mi, 23.01. 19:00 82% 4.5 km
Mi, 23.01. 13:00 76% 3.6 km
Mi, 23.01. 7:00 90% 2.7 km
Mi, 23.01. 1:00 88% 4.2 km
Di, 22.01. 19:00 73% 7 km
Di, 22.01. 13:00 64% 10 km
Di, 22.01. 7:00 90% 6 km
Ortszeit Relative Feuchte Sichtweite
Do, 24.01. 5:00 88% 5.0 km
Do, 24.01. 4:50 88% -
Do, 24.01. 4:40 88% -
Do, 24.01. 4:30 90% 5.0 km
Do, 24.01. 4:20 90% -
Do, 24.01. 4:10 91% -
Do, 24.01. 4:00 90% 4.4 km
Do, 24.01. 3:30 89% 5.0 km
Do, 24.01. 3:00 88% 5.0 km
Do, 24.01. 2:30 86% 6 km
Do, 24.01. 2:00 86% 5.0 km
Ortszeit Niederschlagsmenge Niederschlagsart
Do, 24.01. 1:00 0.0 l/m2 in 6 Std. -
Mi, 23.01. 19:00 0.0 l/m2 in 12 Std. -
Mi, 23.01. 13:00 0.0 l/m2 in 6 Std. -
Mi, 23.01. 7:00 0.0 l/m2 in 12 Std. -
Mi, 23.01. 1:00 0.0 l/m2 in 6 Std. -
Di, 22.01. 19:00 0.0 l/m2 in 12 Std. -
Di, 22.01. 13:00 0.0 l/m2 in 6 Std. -
Di, 22.01. 7:00 0.0 l/m2 in 12 Std. -
Ortszeit Niederschlagsmenge Niederschlagsart
Do, 24.01. 5:00 0.0 l/m2 in 1 Std. -
Do, 24.01. 4:50 keine Meldung -
Do, 24.01. 4:40 keine Meldung -
Do, 24.01. 4:30 0.0 l/m2 in 1 Std. -
Do, 24.01. 4:20 keine Meldung -
Do, 24.01. 4:10 keine Meldung -
Do, 24.01. 4:00 0.0 l/m2 in 1 Std. -
Do, 24.01. 3:30 0.0 l/m2 in 1 Std. -
Do, 24.01. 3:00 0.0 l/m2 in 1 Std. -
Do, 24.01. 2:30 0.0 l/m2 in 1 Std. -
Do, 24.01. 2:00 0.0 l/m2 in 1 Std. -
Ortszeit Stärke Spitze Richtung
km/h Bft. km/h Grad Sektor
Do, 24.01. 1:00 4 1 32 50° NO
Mi, 23.01. 19:00 14 3 32 80° O
Mi, 23.01. 13:00 11 2 29 70° O
Mi, 23.01. 7:00 6 1 11 60° NO
Mi, 23.01. 1:00 6 1 15 70° O
Di, 22.01. 19:00 7 2 18 150° SO
Di, 22.01. 13:00 7 2 14 200° S
Di, 22.01. 7:00 4 1 14 140° SO
Ortszeit Stärke Spitze Richtung
km/h Bft. km/h Grad Sektor
Do, 24.01. 5:00 6 1 9 40° NO
Do, 24.01. 4:50 6 1 - 40° NO
Do, 24.01. 4:40 6 1 - 50° NO
Do, 24.01. 4:30 4 1 7 40° NO
Do, 24.01. 4:20 4 1 - 40° NO
Do, 24.01. 4:10 4 1 - 70° O
Do, 24.01. 4:00 0 0 7 - -
Do, 24.01. 3:30 6 1 7 60° NO
Do, 24.01. 3:00 6 1 13 60° NO
Do, 24.01. 2:30 7 2 11 50° NO
Do, 24.01. 2:00 7 2 7 50° NO
Ortszeit Untergrenze Bedeckung Gattung
total tief tief mittel hoch
Do, 24.01. 1:00 - 0/8 0/8 - - -
Mi, 23.01. 19:00 300 m 8/8 8/8 - - -
Mi, 23.01. 13:00 7500 m 8/8 0/8 - - -
Mi, 23.01. 7:00 6600 m 7/8 5/8 - - -
Mi, 23.01. 1:00 8100 m 4/8 0/8 - - -
Di, 22.01. 19:00 - 0/8 0/8 - - -
Di, 22.01. 13:00 - 0/8 0/8 - - -
Di, 22.01. 7:00 - 0/8 0/8 - - -
Ortszeit Bedeckungsgrad in Achtel und Wolkenuntergrenze
Do, 24.01. 5:00 8(900m)
Do, 24.01. 4:50 8(900m)
Do, 24.01. 4:40 8(900m)
Do, 24.01. 4:30 8(960m)
Do, 24.01. 4:20 8(960m)
Do, 24.01. 4:10 8(990m)
Do, 24.01. 4:00 8(990m)
Do, 24.01. 3:30 6(990m)
Do, 24.01. 3:00 2(930m)
Do, 24.01. 2:30 8(930m)
Do, 24.01. 2:00 2(600m) 7(900m)
Ortszeit Luftdruck NN (hPa) Tendenz (hPa in 3 Std.)
Do, 24.01. 1:00 1008 + 1,2
Mi, 23.01. 19:00 1006 + 1,8
Mi, 23.01. 13:00 1003 - 0,3
Mi, 23.01. 7:00 1004 - 0,8
Mi, 23.01. 1:00 1006 - 1,6
Di, 22.01. 19:00 1009 - 1,5
Di, 22.01. 13:00 1013 - 2,1
Di, 22.01. 7:00 1016 - 1,5
Ortszeit Luftdruck NN (hPa) Tendenz (hPa in 3 Std.)
Do, 24.01. 5:00 1009 + 0,8
Do, 24.01. 4:50 1009 keine Meldung
Do, 24.01. 4:40 1009 keine Meldung
Do, 24.01. 4:30 1009 + 0,8
Do, 24.01. 4:20 1009 keine Meldung
Do, 24.01. 4:10 1009 keine Meldung
Do, 24.01. 4:00 1009 + 0,9
Do, 24.01. 3:30 1009 + 0,7
Do, 24.01. 3:00 1009 + 0,9
Do, 24.01. 2:30 1009 + 1,1
Do, 24.01. 2:00 1009 + 1,2
Ortszeit Schneehöhe (cm)
Do, 24.01. 1:00 0
Mi, 23.01. 19:00 0
Mi, 23.01. 13:00 0
Mi, 23.01. 7:00 0
Mi, 23.01. 1:00 0
Di, 22.01. 19:00 0
Di, 22.01. 13:00 0
Di, 22.01. 7:00 0
Ortszeit Schneehöhe (cm)
Do, 24.01. 5:00 0
Do, 24.01. 4:50 0
Do, 24.01. 4:40 0
Do, 24.01. 4:30 0
Do, 24.01. 4:20 0
Do, 24.01. 4:10 0
Do, 24.01. 4:00 0
Do, 24.01. 3:30 0
Do, 24.01. 3:00 0
Do, 24.01. 2:30 0
Do, 24.01. 2:00 0
Link zu dieser Seite / Seite empfehlen

Das Wetter in ...